This is the latest recevied weather packets stored in our database for station/object OE3MHU-13. If no packets are shown the sender has not sent any weather packets the latest 10 day(s).
| Time | Temp. | Humidity | Pressure | Rain* | Wind** | Luminosity | Snow |
|---|---|---|---|---|---|---|---|
| 1788011865 | 25.56° C | 54% | 1018.4 hPa | 0 mm | - | - | - |
| 1788011558 | 25° C | 54% | 1018.4 hPa | 0 mm | - | - | - |
| 1788011373 | 25° C | 54% | 1018.5 hPa | 0 mm | - | - | - |
| 1788011365 | 25.56° C | 54% | 1018.4 hPa | 0 mm | - | - | - |
| 1788010642 | 25° C | 55% | 1018.5 hPa | 0 mm | - | - | - |
| 1788010335 | 25° C | 55% | 1018.5 hPa | 0 mm | - | - | - |
| 1788010031 | 25° C | 56% | 1018.5 hPa | 0 mm | - | - | - |
| 1788009723 | 25° C | 55% | 1018.6 hPa | 0 mm | - | - | - |
| 1788009417 | 24.44° C | 55% | 1018.6 hPa | 0 mm | - | - | - |
| 1788009114 | 24.44° C | 56% | 1018.7 hPa | 0 mm | - | - | - |
| 1788008805 | 24.44° C | 56% | 1018.6 hPa | 0 mm | - | - | - |
| 1788008498 | 24.44° C | 57% | 1018.8 hPa | 0 mm | - | - | - |
| 1788008194 | 24.44° C | 58% | 1018.8 hPa | 0 mm | - | - | - |
| 1788007887 | 24.44° C | 57% | 1018.8 hPa | 0 mm | - | - | - |
| 1788007581 | 23.89° C | 58% | 1018.8 hPa | 0 mm | - | - | - |
| 1788007275 | 23.89° C | 59% | 1018.7 hPa | 0 mm | - | - | - |
| 1788006970 | 23.33° C | 59% | 1018.7 hPa | 0 mm | - | - | - |
| 1788006665 | 23.33° C | 59% | 1018.7 hPa | 0 mm | - | - | - |
| 1788006357 | 23.33° C | 60% | 1018.7 hPa | 0 mm | - | - | - |
| 1788006052 | 23.33° C | 60% | 1018.8 hPa | 0 mm | - | - | - |
| 1788005746 | 23.33° C | 61% | 1018.8 hPa | 0 mm | - | - | - |
| 1788005439 | 22.78° C | 61% | 1018.8 hPa | 0 mm | - | - | - |
| 1788005133 | 22.78° C | 62% | 1018.8 hPa | 0 mm | - | - | - |
| 1788004826 | 22.78° C | 63% | 1018.8 hPa | 0 mm | - | - | - |
| 1788004518 | 22.78° C | 64% | 1018.8 hPa | 0 mm | - | - | - |
* Rain latest hour (hover to see other rain measurements)
** Current wind speed in m/s (hover to see current wind gust speed)